Precipitable_Water
0.42 0.42 0.40 0.40 0.40 0.38 0.38 0.38 0.38 0.38 0.38 0.38 0.38 0.38 0.38 0.38 0.38 0.38 0.38 0.38 0.38 0.36 0.36 0.36 0.36 0.36 0.36 0.36 0.38 0.38 0.38 0.40 0.40 0.42 0.42 0.44 0.44 0.44 0.44 0.44 0.44 0.46 0.46 0.46 0.46 0.46 0.48 0.46 0.46 0.44 0.44 0.44 0.44 0.44 0.44 0.44 0.46 0.46 0.48 0.52 0.54 0.58 0.60 0.62 0.67 0.75 0.85 0.93 0.95
0.42 0.42 0.42 0.40 0.40 0.40 0.38 0.38 0.38 0.38 0.38 0.38 0.38 0.38 0.40 0.40 0.38 0.38 0.38 0.38 0.38 0.38 0.38 0.36 0.36 0.36 0.36 0.36 0.38 0.38 0.38 0.38 0.40 0.40 0.42 0.44 0.44 0.44 0.44 0.44 0.44 0.46 0.46 0.46 0.46 0.48 0.48 0.48 0.48 0.46 0.44 0.44 0.44 0.44 0.44 0.46 0.46 0.46 0.46 0.48 0.50 0.54 0.60 0.62 0.65 0.73 0.79 0.85 0.93
0.42 0.42 0.42 0.40 0.40 0.38 0.38 0.38 0.36 0.36 0.38 0.38 0.38 0.38 0.40 0.40 0.40 0.40 0.40 0.40 0.40 0.40 0.38 0.38 0.38 0.38 0.36 0.36 0.38 0.38 0.38 0.40 0.40 0.40 0.42 0.44 0.44 0.44 0.44 0.44 0.46 0.46 0.46 0.48 0.48 0.48 0.48 0.48 0.48 0.48 0.46 0.44 0.44 0.42 0.42 0.44 0.46 0.46 0.46 0.46 0.48 0.54 0.60 0.62 0.65 0.71 0.77 0.83 0.89
0.42 0.42 0.40 0.40 0.38 0.38 0.38 0.36 0.36 0.36 0.36 0.38 0.38 0.38 0.38 0.38 0.40 0.40 0.40 0.40 0.40 0.40 0.38 0.38 0.38 0.38 0.38 0.38 0.38 0.38 0.38 0.40 0.40 0.40 0.42 0.42 0.44 0.44 0.46 0.46 0.46 0.46 0.46 0.48 0.48 0.48 0.48 0.48 0.50 0.48 0.48 0.46 0.44 0.42 0.42 0.42 0.44 0.44 0.46 0.46 0.48 0.52 0.56 0.62 0.65 0.69 0.73 0.77 0.81
0.40 0.40 0.40 0.38 0.38 0.38 0.38 0.38 0.36 0.36 0.36 0.36 0.38 0.38 0.38 0.38 0.38 0.40 0.40 0.40 0.40 0.40 0.38 0.38 0.38 0.38 0.38 0.38 0.38 0.38 0.38 0.38 0.40 0.40 0.42 0.42 0.44 0.46 0.46 0.46 0.46 0.46 0.46 0.48 0.48 0.48 0.48 0.48 0.48 0.50 0.48 0.48 0.46 0.44 0.44 0.44 0.44 0.44 0.46 0.46 0.48 0.50 0.54 0.56 0.64 0.69 0.73 0.75 0.79
0.40 0.40 0.40 0.40 0.38 0.38 0.38 0.38 0.38 0.36 0.36 0.36 0.36 0.36 0.36 0.36 0.38 0.38 0.38 0.38 0.38 0.40 0.40 0.40 0.40 0.40 0.40 0.40 0.38 0.38 0.38 0.38 0.40 0.40 0.42 0.42 0.44 0.46 0.46 0.46 0.46 0.46 0.46 0.46 0.48 0.48 0.48 0.48 0.48 0.48 0.50 0.50 0.48 0.46 0.44 0.44 0.44 0.44 0.44 0.44 0.46 0.50 0.52 0.54 0.64 0.67 0.71 0.75 0.77
0.40 0.40 0.40 0.40 0.38 0.38 0.38 0.38 0.38 0.38 0.38 0.36 0.36 0.36 0.36 0.36 0.36 0.38 0.38 0.38 0.38 0.40 0.40 0.40 0.40 0.40 0.40 0.38 0.38 0.38 0.38 0.38 0.40 0.40 0.42 0.42 0.44 0.46 0.46 0.46 0.46 0.46 0.46 0.46 0.48 0.48 0.48 0.48 0.48 0.48 0.48 0.50 0.50 0.48 0.46 0.46 0.44 0.44 0.42 0.42 0.46 0.48 0.50 0.52 0.56 0.62 0.69 0.73 0.73
0.40 0.40 0.38 0.38 0.38 0.38 0.38 0.38 0.38 0.38 0.38 0.36 0.36 0.36 0.36 0.36 0.36 0.36 0.38 0.38 0.38 0.38 0.38 0.40 0.40 0.40 0.40 0.38 0.38 0.38 0.38 0.38 0.40 0.40 0.42 0.44 0.44 0.46 0.46 0.46 0.46 0.46 0.46 0.46 0.48 0.48 0.48 0.50 0.48 0.48 0.48 0.50 0.50 0.50 0.48 0.46 0.44 0.44 0.42 0.42 0.44 0.46 0.48 0.50 0.54 0.58 0.62 0.69 0.71
0.38 0.38 0.38 0.38 0.38 0.38 0.38 0.38 0.38 0.38 0.36 0.36 0.36 0.36 0.36 0.36 0.36 0.36 0.36 0.36 0.36 0.38 0.38 0.38 0.38 0.40 0.40 0.38 0.38 0.38 0.38 0.38 0.40 0.40 0.42 0.42 0.44 0.46 0.46 0.48 0.46 0.46 0.46 0.46 0.48 0.48 0.48 0.48 0.48 0.50 0.50 0.50 0.50 0.50 0.50 0.48 0.46 0.44 0.42 0.42 0.44 0.46 0.48 0.50 0.52 0.54 0.58 0.60 0.67
0.36 0.38 0.38 0.38 0.38 0.38 0.38 0.38 0.38 0.38 0.38 0.36 0.36 0.36 0.36 0.36 0.36 0.36 0.36 0.36 0.36 0.36 0.38 0.38 0.38 0.38 0.38 0.38 0.38 0.38 0.38 0.40 0.40 0.40 0.42 0.42 0.44 0.44 0.46 0.48 0.48 0.48 0.48 0.48 0.48 0.48 0.48 0.48 0.48 0.48 0.50 0.50 0.50 0.50 0.50 0.50 0.48 0.46 0.44 0.42 0.42 0.44 0.44 0.46 0.48 0.52 0.56 0.58 0.64
0.36 0.38 0.38 0.38 0.38 0.38 0.38 0.38 0.38 0.38 0.36 0.36 0.36 0.36 0.36 0.36 0.34 0.36 0.36 0.36 0.36 0.36 0.36 0.36 0.38 0.38 0.38 0.38 0.38 0.38 0.38 0.40 0.40 0.40 0.42 0.42 0.44 0.44 0.46 0.48 0.48 0.48 0.48 0.48 0.48 0.48 0.48 0.48 0.48 0.48 0.48 0.50 0.50 0.50 0.50 0.50 0.48 0.46 0.44 0.42 0.42 0.42 0.42 0.44 0.46 0.50 0.52 0.56 0.62
0.36 0.36 0.38 0.38 0.38 0.38 0.38 0.38 0.36 0.36 0.36 0.34 0.34 0.34 0.34 0.34 0.34 0.36 0.36 0.36 0.36 0.36 0.36 0.36 0.38 0.38 0.38 0.38 0.38 0.38 0.38 0.40 0.40 0.40 0.42 0.42 0.42 0.44 0.44 0.46 0.48 0.48 0.48 0.48 0.50 0.48 0.48 0.48 0.48 0.48 0.48 0.48 0.50 0.50 0.50 0.50 0.50 0.48 0.46 0.42 0.42 0.42 0.42 0.42 0.44 0.48 0.50 0.54 0.60
0.36 0.36 0.36 0.36 0.38 0.36 0.36 0.36 0.36 0.34 0.34 0.34 0.34 0.34 0.34 0.34 0.36 0.36 0.36 0.36 0.34 0.36 0.36 0.36 0.38 0.38 0.38 0.38 0.38 0.38 0.38 0.40 0.40 0.40 0.42 0.42 0.42 0.44 0.44 0.46 0.48 0.48 0.48 0.48 0.50 0.50 0.48 0.48 0.48 0.48 0.48 0.48 0.48 0.50 0.50 0.52 0.50 0.48 0.46 0.44 0.42 0.42 0.40 0.40 0.44 0.46 0.48 0.52 0.58
0.36 0.36 0.36 0.36 0.36 0.34 0.34 0.34 0.34 0.32 0.32 0.32 0.34 0.34 0.34 0.34 0.36 0.36 0.36 0.36 0.36 0.36 0.36 0.36 0.36 0.36 0.38 0.38 0.38 0.38 0.40 0.40 0.40 0.40 0.40 0.42 0.42 0.42 0.44 0.44 0.46 0.48 0.48 0.48 0.50 0.50 0.50 0.48 0.48 0.48 0.48 0.48 0.48 0.50 0.50 0.52 0.52 0.50 0.48 0.44 0.42 0.40 0.40 0.40 0.42 0.44 0.46 0.50 0.56
0.34 0.34 0.34 0.34 0.32 0.32 0.32 0.32 0.32 0.32 0.32 0.32 0.32 0.34 0.34 0.34 0.34 0.36 0.36 0.36 0.36 0.36 0.36 0.36 0.36 0.36 0.38 0.38 0.38 0.38 0.40 0.40 0.40 0.40 0.40 0.42 0.42 0.42 0.44 0.44 0.44 0.46 0.48 0.48 0.50 0.50 0.50 0.50 0.50 0.48 0.48 0.48 0.48 0.50 0.50 0.52 0.52 0.52 0.50 0.46 0.44 0.42 0.40 0.40 0.42 0.42 0.44 0.48 0.54
0.32 0.32 0.32 0.32 0.30 0.30 0.30 0.30 0.30 0.30 0.30 0.30 0.32 0.32 0.34 0.34 0.34 0.36 0.36 0.36 0.36 0.36 0.36 0.36 0.36 0.36 0.38 0.38 0.38 0.40 0.40 0.40 0.40 0.40 0.40 0.40 0.42 0.42 0.44 0.44 0.44 0.46 0.48 0.48 0.50 0.50 0.50 0.50 0.50 0.50 0.50 0.50 0.50 0.50 0.52 0.52 0.52 0.52 0.52 0.50 0.46 0.44 0.42 0.42 0.42 0.42 0.44 0.46 0.50
0.30 0.30 0.30 0.30 0.30 0.30 0.30 0.30 0.30 0.30 0.30 0.30 0.30 0.32 0.32 0.34 0.34 0.36 0.36 0.36 0.36 0.36 0.36 0.36 0.36 0.38 0.38 0.38 0.38 0.40 0.40 0.40 0.40 0.40 0.40 0.40 0.42 0.42 0.44 0.44 0.46 0.46 0.48 0.50 0.50 0.50 0.50 0.50 0.50 0.50 0.50 0.50 0.50 0.50 0.52 0.52 0.52 0.54 0.54 0.52 0.48 0.46 0.42 0.42 0.42 0.44 0.44 0.46 0.48
0.30 0.28 0.28 0.28 0.28 0.28 0.28 0.28 0.28 0.28 0.28 0.28 0.30 0.30 0.32 0.32 0.34 0.36 0.36 0.38 0.38 0.38 0.38 0.38 0.38 0.38 0.38 0.38 0.40 0.40 0.40 0.40 0.40 0.40 0.40 0.42 0.42 0.42 0.44 0.44 0.46 0.46 0.48 0.50 0.50 0.50 0.50 0.50 0.50 0.50 0.50 0.50 0.50 0.52 0.52 0.52 0.54 0.54 0.54 0.54 0.52 0.48 0.44 0.42 0.44 0.44 0.44 0.46 0.48
0.28 0.28 0.28 0.28 0.28 0.28 0.28 0.28 0.28 0.28 0.28 0.28 0.28 0.30 0.30 0.32 0.32 0.34 0.36 0.38 0.38 0.38 0.38 0.38 0.38 0.38 0.38 0.38 0.40 0.40 0.40 0.40 0.40 0.40 0.42 0.42 0.42 0.44 0.44 0.46 0.46 0.48 0.48 0.50 0.50 0.50 0.52 0.50 0.50 0.50 0.50 0.50 0.50 0.52 0.52 0.52 0.54 0.54 0.54 0.54 0.52 0.50 0.48 0.44 0.44 0.44 0.46 0.46 0.48
0.28 0.28 0.28 0.28 0.28 0.28 0.28 0.28 0.28 0.28 0.28 0.28 0.28 0.28 0.30 0.30 0.32 0.34 0.36 0.36 0.38 0.38 0.38 0.38 0.38 0.38 0.38 0.40 0.40 0.40 0.40 0.42 0.42 0.42 0.42 0.42 0.44 0.44 0.44 0.46 0.46 0.48 0.48 0.50 0.50 0.52 0.52 0.52 0.52 0.52 0.52 0.50 0.50 0.50 0.52 0.52 0.54 0.54 0.56 0.56 0.54 0.50 0.48 0.46 0.46 0.46 0.46 0.46 0.50
0.26 0.26 0.28 0.28 0.28 0.28 0.28 0.28 0.28 0.28 0.28 0.28 0.28 0.28 0.28 0.30 0.30 0.32 0.34 0.36 0.38 0.38 0.40 0.40 0.38 0.38 0.38 0.38 0.40 0.40 0.40 0.42 0.42 0.42 0.42 0.42 0.42 0.44 0.46 0.46 0.48 0.48 0.50 0.50 0.52 0.52 0.52 0.52 0.52 0.52 0.52 0.52 0.50 0.50 0.52 0.52 0.54 0.54 0.56 0.56 0.54 0.52 0.50 0.48 0.46 0.46 0.46 0.48 0.50
0.26 0.26 0.26 0.28 0.28 0.28 0.28 0.28 0.28 0.28 0.28 0.28 0.28 0.28 0.28 0.28 0.30 0.30 0.32 0.36 0.38 0.38 0.38 0.40 0.40 0.40 0.40 0.40 0.40 0.40 0.40 0.42 0.42 0.42 0.42 0.42 0.44 0.44 0.46 0.48 0.48 0.48 0.50 0.50 0.52 0.52 0.52 0.54 0.54 0.52 0.52 0.52 0.52 0.52 0.52 0.52 0.52 0.54 0.56 0.56 0.54 0.52 0.50 0.48 0.46 0.46 0.46 0.46 0.50
0.26 0.26 0.26 0.26 0.26 0.28 0.28 0.28 0.28 0.28 0.28 0.28 0.28 0.28 0.28 0.28 0.28 0.30 0.32 0.36 0.36 0.38 0.38 0.40 0.40 0.40 0.40 0.40 0.40 0.40 0.40 0.40 0.40 0.42 0.42 0.42 0.44 0.44 0.46 0.48 0.48 0.48 0.50 0.50 0.52 0.52 0.52 0.54 0.54 0.54 0.52 0.52 0.52 0.52 0.52 0.52 0.52 0.54 0.54 0.56 0.54 0.52 0.50 0.48 0.48 0.48 0.48 0.48 0.50
0.26 0.26 0.26 0.26 0.26 0.26 0.26 0.26 0.26 0.26 0.26 0.26 0.26 0.28 0.28 0.28 0.28 0.30 0.30 0.34 0.36 0.36 0.38 0.40 0.40 0.40 0.42 0.42 0.40 0.40 0.40 0.40 0.40 0.40 0.42 0.42 0.44 0.44 0.46 0.48 0.48 0.50 0.50 0.50 0.52 0.52 0.54 0.54 0.54 0.54 0.54 0.52 0.52 0.52 0.52 0.52 0.52 0.54 0.54 0.56 0.54 0.52 0.50 0.48 0.48 0.48 0.48 0.48 0.50
0.24 0.26 0.26 0.26 0.26 0.26 0.26 0.26 0.26 0.26 0.26 0.26 0.26 0.28 0.28 0.28 0.28 0.28 0.30 0.32 0.34 0.36 0.38 0.40 0.40 0.42 0.42 0.42 0.42 0.42 0.40 0.40 0.40 0.40 0.42 0.42 0.44 0.44 0.46 0.48 0.48 0.50 0.50 0.52 0.52 0.54 0.54 0.54 0.54 0.54 0.54 0.54 0.54 0.52 0.52 0.54 0.54 0.54 0.56 0.56 0.56 0.52 0.50 0.48 0.48 0.48 0.48 0.48 0.50
0.24 0.24 0.24 0.24 0.26 0.26 0.26 0.26 0.26 0.26 0.26 0.26 0.26 0.26 0.26 0.28 0.28 0.28 0.28 0.30 0.32 0.34 0.36 0.38 0.40 0.42 0.42 0.42 0.42 0.42 0.40 0.40 0.42 0.42 0.42 0.42 0.42 0.44 0.46 0.46 0.50 0.50 0.52 0.52 0.54 0.54 0.54 0.56 0.56 0.56 0.56 0.54 0.54 0.54 0.54 0.54 0.56 0.56 0.56 0.56 0.56 0.54 0.52 0.46 0.48 0.48 0.48 0.50 0.50
0.24 0.24 0.24 0.24 0.24 0.24 0.24 0.26 0.26 0.26 0.26 0.26 0.26 0.26 0.26 0.28 0.28 0.28 0.28 0.28 0.30 0.34 0.36 0.38 0.40 0.42 0.42 0.42 0.42 0.42 0.40 0.40 0.42 0.42 0.42 0.42 0.44 0.44 0.46 0.46 0.48 0.50 0.52 0.52 0.54 0.54 0.54 0.56 0.56 0.56 0.56 0.56 0.56 0.54 0.54 0.54 0.56 0.56 0.58 0.58 0.56 0.54 0.52 0.50 0.48 0.48 0.48 0.50 0.50
0.22 0.22 0.24 0.24 0.24 0.24 0.24 0.24 0.26 0.26 0.26 0.26 0.26 0.26 0.26 0.26 0.28 0.28 0.28 0.28 0.30 0.32 0.34 0.36 0.38 0.40 0.42 0.42 0.42 0.42 0.40 0.42 0.42 0.42 0.42 0.44 0.44 0.44 0.46 0.48 0.48 0.50 0.52 0.52 0.54 0.54 0.54 0.56 0.56 0.56 0.56 0.56 0.56 0.56 0.56 0.56 0.56 0.58 0.58 0.58 0.56 0.56 0.52 0.50 0.48 0.48 0.48 0.50 0.52
0.22 0.22 0.22 0.22 0.22 0.24 0.24 0.24 0.24 0.26 0.26 0.26 0.26 0.26 0.26 0.26 0.26 0.28 0.28 0.28 0.28 0.30 0.32 0.34 0.36 0.38 0.40 0.40 0.42 0.42 0.42 0.42 0.42 0.42 0.44 0.44 0.44 0.46 0.46 0.48 0.48 0.50 0.52 0.54 0.54 0.54 0.54 0.56 0.56 0.56 0.56 0.58 0.58 0.58 0.58 0.56 0.58 0.58 0.58 0.58 0.58 0.56 0.54 0.52 0.50 0.50 0.50 0.50 0.52
0.20 0.22 0.22 0.22 0.22 0.22 0.22 0.24 0.24 0.26 0.26 0.26 0.26 0.26 0.26 0.26 0.26 0.26 0.28 0.28 0.28 0.30 0.32 0.34 0.36 0.38 0.40 0.40 0.42 0.42 0.42 0.42 0.42 0.42 0.44 0.44 0.44 0.46 0.46 0.48 0.50 0.50 0.52 0.52 0.54 0.54 0.56 0.56 0.56 0.58 0.58 0.58 0.58 0.58 0.58 0.58 0.58 0.58 0.58 0.58 0.58 0.56 0.54 0.52 0.50 0.50 0.50 0.52 0.52
0.20 0.20 0.20 0.20 0.22 0.22 0.22 0.22 0.24 0.24 0.24 0.26 0.26 0.26 0.26 0.26 0.26 0.26 0.26 0.28 0.30 0.30 0.32 0.34 0.36 0.36 0.38 0.40 0.42 0.42 0.42 0.42 0.42 0.42 0.44 0.44 0.44 0.46 0.48 0.48 0.50 0.52 0.52 0.54 0.54 0.56 0.56 0.58 0.58 0.58 0.60 0.60 0.60 0.60 0.58 0.58 0.58 0.58 0.58 0.58 0.58 0.56 0.54 0.52 0.52 0.52 0.52 0.52 0.52
0.18 0.20 0.20 0.20 0.20 0.20 0.22 0.22 0.24 0.24 0.24 0.24 0.24 0.24 0.24 0.24 0.26 0.26 0.28 0.28 0.30 0.30 0.30 0.32 0.34 0.36 0.38 0.40 0.40 0.42 0.42 0.42 0.42 0.42 0.44 0.44 0.46 0.46 0.48 0.50 0.50 0.52 0.52 0.54 0.56 0.56 0.58 0.58 0.60 0.60 0.62 0.62 0.60 0.60 0.60 0.58 0.58 0.58 0.60 0.60 0.58 0.56 0.54 0.54 0.52 0.52 0.52 0.52 0.54
0.18 0.18 0.18 0.20 0.20 0.20 0.20 0.22 0.22 0.22 0.22 0.24 0.24 0.24 0.24 0.24 0.26 0.26 0.26 0.28 0.28 0.30 0.30 0.32 0.34 0.34 0.36 0.38 0.40 0.40 0.42 0.42 0.42 0.42 0.44 0.44 0.46 0.48 0.48 0.50 0.52 0.52 0.54 0.54 0.56 0.56 0.58 0.60 0.60 0.62 0.62 0.62 0.62 0.62 0.60 0.60 0.60 0.60 0.62 0.60 0.60 0.58 0.56 0.54 0.54 0.54 0.54 0.54 0.56
0.18 0.18 0.18 0.18 0.20 0.20 0.20 0.20 0.22 0.22 0.22 0.22 0.22 0.24 0.24 0.24 0.24 0.26 0.26 0.28 0.28 0.30 0.32 0.32 0.34 0.36 0.38 0.40 0.40 0.40 0.42 0.42 0.42 0.42 0.44 0.46 0.46 0.48 0.50 0.50 0.52 0.54 0.54 0.54 0.56 0.56 0.58 0.58 0.58 0.60 0.60 0.62 0.64 0.64 0.62 0.62 0.62 0.62 0.60 0.60 0.60 0.58 0.58 0.56 0.56 0.56 0.56 0.56 0.56
0.18 0.18 0.18 0.18 0.20 0.20 0.20 0.20 0.22 0.22 0.22 0.22 0.22 0.22 0.24 0.24 0.24 0.26 0.26 0.28 0.30 0.30 0.32 0.32 0.34 0.36 0.38 0.40 0.40 0.42 0.42 0.42 0.42 0.42 0.42 0.44 0.46 0.48 0.48 0.50 0.52 0.54 0.54 0.54 0.56 0.56 0.58 0.58 0.58 0.58 0.60 0.60 0.62 0.62 0.62 0.62 0.62 0.60 0.60 0.60 0.58 0.58 0.56 0.56 0.56 0.56 0.56 0.56 0.58
0.18 0.18 0.18 0.18 0.20 0.20 0.20 0.20 0.22 0.22 0.22 0.22 0.22 0.22 0.24 0.24 0.24 0.26 0.26 0.28 0.30 0.30 0.30 0.32 0.34 0.34 0.36 0.38 0.40 0.40 0.42 0.42 0.42 0.42 0.42 0.44 0.46 0.48 0.48 0.50 0.52 0.54 0.54 0.54 0.56 0.56 0.56 0.58 0.58 0.58 0.58 0.60 0.60 0.60 0.60 0.60 0.60 0.60 0.60 0.58 0.56 0.56 0.56 0.56 0.56 0.56 0.58 0.60 0.60
0.18 0.18 0.20 0.20 0.20 0.20 0.20 0.22 0.22 0.22 0.22 0.22 0.24 0.24 0.24 0.24 0.24 0.26 0.26 0.28 0.28 0.30 0.30 0.30 0.32 0.34 0.36 0.38 0.40 0.40 0.42 0.42 0.42 0.42 0.42 0.44 0.46 0.48 0.48 0.50 0.52 0.52 0.54 0.54 0.56 0.56 0.56 0.58 0.58 0.58 0.58 0.58 0.58 0.58 0.60 0.60 0.60 0.58 0.58 0.56 0.56 0.56 0.56 0.56 0.56 0.58 0.58 0.60 0.60
0.18 0.20 0.20 0.20 0.20 0.20 0.20 0.22 0.22 0.22 0.24 0.24 0.24 0.24 0.24 0.24 0.26 0.26 0.26 0.28 0.28 0.28 0.30 0.30 0.32 0.34 0.36 0.38 0.40 0.40 0.42 0.42 0.42 0.42 0.44 0.44 0.46 0.48 0.48 0.50 0.50 0.52 0.54 0.54 0.54 0.56 0.56 0.56 0.58 0.58 0.58 0.58 0.58 0.58 0.58 0.58 0.58 0.58 0.56 0.56 0.54 0.54 0.56 0.56 0.58 0.58 0.60 0.60 0.62
0.20 0.20 0.20 0.20 0.20 0.20 0.22 0.22 0.24 0.24 0.24 0.24 0.24 0.24 0.24 0.24 0.26 0.26 0.26 0.28 0.30 0.30 0.30 0.30 0.32 0.34 0.36 0.38 0.40 0.40 0.42 0.42 0.42 0.44 0.44 0.46 0.48 0.48 0.48 0.48 0.50 0.52 0.54 0.54 0.54 0.56 0.56 0.56 0.56 0.58 0.58 0.58 0.58 0.58 0.58 0.58 0.56 0.56 0.56 0.54 0.54 0.54 0.56 0.56 0.58 0.58 0.60 0.62 0.64
0.20 0.20 0.20 0.20 0.22 0.22 0.22 0.24 0.24 0.24 0.26 0.26 0.26 0.26 0.26 0.26 0.26 0.26 0.28 0.28 0.30 0.30 0.30 0.30 0.32 0.34 0.36 0.38 0.40 0.40 0.40 0.42 0.44 0.44 0.46 0.46 0.48 0.48 0.50 0.50 0.50 0.52 0.52 0.54 0.54 0.56 0.56 0.56 0.56 0.58 0.58 0.58 0.58 0.58 0.58 0.56 0.56 0.56 0.54 0.54 0.54 0.54 0.56 0.58 0.58 0.60 0.62 0.62 0.64
0.20 0.20 0.22 0.22 0.22 0.22 0.24 0.24 0.26 0.26 0.26 0.26 0.26 0.26 0.26 0.26 0.26 0.26 0.28 0.28 0.30 0.30 0.30 0.32 0.34 0.36 0.38 0.38 0.40 0.40 0.40 0.42 0.42 0.44 0.46 0.48 0.48 0.48 0.50 0.50 0.50 0.50 0.52 0.52 0.54 0.56 0.56 0.56 0.56 0.58 0.58 0.58 0.58 0.56 0.56 0.56 0.56 0.54 0.54 0.54 0.54 0.54 0.54 0.58 0.60 0.60 0.62 0.64 0.65
Wind_Speed
44 45 45 45 45 45 44 44 44 43 43 43 42 42 42 42 43 43 43 43 43 43 43 42 41 40 39 38 38 38 38 38 37 37 37 37 37 37 37 37 36 36 35 34 34 33 33 33 33 33 34 34 34 34 35 35 35 36 36 36 37 38 39 41 44 45 45 44 41
45 45 45 46 45 45 45 45 44 44 43 43 43 43 43 43 43 44 44 44 44 44 43 43 41 40 40 39 39 38 38 38 38 38 38 37 37 37 37 37 36 36 35 35 34 34 33 33 33 34 34 34 34 34 35 35 35 36 36 37 37 38 39 40 43 45 46 45 44
46 46 46 46 46 46 46 45 45 45 44 44 43 43 43 43 44 44 45 45 45 45 44 43 42 41 40 40 39 38 38 38 38 38 38 38 37 37 37 36 36 36 36 35 35 34 34 34 34 34 34 34 34 34 35 35 35 36 36 37 37 37 38 39 41 43 45 45 45
47 47 47 47 47 47 46 46 46 46 45 44 44 44 44 44 44 45 45 45 45 45 44 43 42 41 40 40 39 39 38 38 38 38 38 38 37 37 37 37 36 36 36 35 35 35 34 34 34 34 34 34 35 35 35 35 35 35 36 36 37 37 38 39 40 42 43 45 46
48 48 47 47 47 47 47 47 47 46 46 45 45 44 44 44 45 45 46 46 45 45 44 43 42 41 40 40 39 39 39 38 38 38 38 38 37 37 37 37 36 36 36 36 35 35 34 34 34 34 35 35 35 35 35 35 35 35 36 36 36 37 37 38 39 40 42 44 45
48 48 48 48 48 48 48 47 47 47 47 46 45 45 45 45 45 46 46 46 46 45 44 43 42 41 40 40 39 39 39 38 38 38 38 38 38 37 37 37 36 36 36 36 35 35 35 34 34 35 35 35 35 35 35 35 35 35 36 36 36 36 37 38 39 40 41 42 44
49 49 49 49 49 49 48 48 48 48 47 47 47 46 46 47 47 47 47 47 46 45 44 43 42 41 41 40 40 39 39 38 38 38 38 38 38 37 37 37 37 36 36 36 35 35 35 34 34 35 35 35 35 35 35 35 35 35 36 36 36 36 37 38 39 40 41 42 43
50 49 49 50 50 50 49 49 49 49 49 48 48 48 48 49 49 48 48 47 46 45 44 43 43 42 41 40 40 39 39 39 38 38 38 38 38 38 37 37 37 36 36 36 35 35 35 34 34 35 35 35 35 35 35 35 35 35 36 36 36 36 37 38 39 40 41 42 43
50 50 50 50 50 50 51 51 51 50 50 50 50 50 51 50 50 50 49 48 47 46 45 44 43 42 41 41 40 39 39 38 38 38 38 38 38 38 38 37 37 36 36 36 35 35 35 35 35 35 35 35 35 35 35 35 35 36 36 36 36 36 37 38 38 40 41 42 43
51 51 51 51 52 52 52 52 52 52 52 53 53 52 52 52 51 50 49 48 47 46 45 44 43 43 42 41 40 40 39 39 38 38 38 38 38 38 38 37 37 37 36 36 35 35 35 35 35 35 35 35 36 36 36 36 36 36 36 36 36 36 37 38 38 39 41 42 42
52 52 53 53 53 53 53 53 54 54 54 54 54 53 52 52 51 49 48 47 47 46 45 44 44 43 42 42 41 40 39 39 38 38 38 38 38 38 38 37 37 37 37 36 36 35 35 35 35 35 35 35 36 36 36 36 36 36 36 36 36 37 37 38 38 39 40 41 42
54 54 54 54 54 54 54 55 55 54 54 54 53 53 52 51 50 49 48 47 46 46 45 45 44 43 43 42 41 40 39 39 38 38 37 37 37 38 38 38 38 37 37 37 36 35 35 35 35 35 35 35 35 35 35 36 36 36 36 36 36 36 37 37 38 39 40 41 41
55 55 55 55 55 55 55 55 55 54 54 53 53 52 51 50 49 48 47 47 46 46 45 45 44 43 42 42 41 40 39 39 38 38 37 37 37 37 38 38 38 38 37 37 36 36 35 35 35 35 35 36 35 35 35 36 36 36 36 36 36 36 37 37 38 39 40 41 41
56 56 56 56 55 55 55 54 54 53 53 52 52 51 50 49 49 48 47 47 46 46 45 44 44 43 42 41 41 40 39 39 38 37 37 37 37 37 38 38 38 38 37 37 36 36 36 35 35 35 35 36 36 36 36 36 36 36 37 37 37 37 37 37 38 38 39 40 41
56 56 55 55 55 54 54 53 53 52 52 52 51 50 50 49 49 48 47 47 46 46 45 44 44 43 42 41 40 40 39 38 38 37 37 37 37 37 38 38 38 38 37 37 36 36 36 36 35 35 36 36 36 36 36 36 36 36 37 37 37 37 37 37 37 38 39 40 41
55 55 54 54 54 53 53 52 52 52 51 51 51 50 50 49 48 48 47 47 46 45 45 44 43 42 42 41 40 39 39 38 38 37 37 37 37 37 37 38 38 38 37 37 36 36 36 36 35 35 36 36 36 36 36 36 36 36 37 37 37 37 37 37 37 38 39 40 40
54 54 54 53 53 53 52 52 52 52 51 51 51 51 50 49 48 48 47 46 46 45 44 44 43 42 41 40 39 39 38 38 37 37 37 37 37 37 37 37 37 37 37 37 36 36 36 36 36 36 36 36 36 36 36 36 36 36 37 37 37 37 37 37 37 38 39 39 40
54 54 53 53 53 53 53 52 52 52 52 51 51 50 50 49 48 48 47 46 45 45 44 43 42 41 41 40 39 38 38 38 37 37 37 37 37 37 37 37 37 37 37 36 36 36 36 36 36 36 36 36 36 36 36 36 36 36 36 37 37 37 37 37 37 38 38 39 40
54 54 53 53 53 53 53 53 52 52 52 51 51 50 50 49 48 47 47 46 45 44 43 43 42 41 40 39 39 38 38 37 37 37 37 36 36 36 37 37 37 37 36 36 36 36 36 36 36 36 36 36 36 36 36 35 35 35 36 36 37 37 37 37 37 37 38 39 39
54 54 54 53 53 53 53 53 52 52 52 51 51 50 50 49 48 47 46 45 44 43 43 42 41 40 39 39 38 38 37 37 37 36 36 36 36 36 36 36 36 36 36 36 35 35 35 35 35 35 36 36 36 36 35 35 35 35 35 36 36 36 36 36 37 37 37 38 39
54 54 54 54 54 53 53 53 52 52 52 51 51 50 49 48 47 46 45 45 44 43 42 41 40 39 39 38 38 37 37 36 36 36 36 36 36 36 36 36 36 36 35 35 35 35 35 35 35 35 35 35 35 35 35 34 34 35 35 35 36 36 36 36 36 37 37 38 38
55 54 54 54 54 54 53 53 52 52 52 51 50 50 49 48 47 46 45 44 43 42 41 40 39 38 38 37 37 37 36 36 36 35 35 35 35 35 35 35 35 35 34 34 34 34 34 34 34 34 35 35 35 35 34 34 34 34 35 35 35 36 36 36 36 36 37 37 38
55 55 55 54 54 54 53 53 52 52 51 51 50 49 48 47 46 45 44 43 42 41 40 39 38 37 37 37 36 36 36 36 35 35 35 35 35 35 35 34 34 34 34 33 33 33 33 33 34 34 34 34 34 34 34 33 33 33 34 34 35 35 35 35 35 35 36 36 37
55 55 55 55 54 54 53 53 52 51 51 50 49 49 48 47 46 45 43 42 41 40 39 38 37 37 36 36 36 36 36 35 35 35 34 34 34 34 34 34 33 33 33 32 32 32 32 32 33 33 33 33 33 33 33 33 33 33 33 34 34 34 35 34 34 35 35 35 36
56 56 55 55 54 54 53 52 52 51 50 50 49 48 47 46 45 44 43 41 40 39 38 37 37 36 36 35 35 35 35 35 34 34 34 34 33 33 33 33 32 32 32 32 32 32 32 32 32 32 32 32 32 32 32 32 32 32 33 33 34 34 34 34 34 34 34 35 35
56 56 56 55 55 54 53 52 51 51 50 49 48 48 47 45 44 43 42 41 39 38 37 37 36 36 35 35 35 34 34 34 34 34 33 33 33 32 32 32 31 31 31 31 31 32 32 32 32 32 32 32 31 31 31 31 31 32 32 33 33 33 33 33 33 33 33 34 34
57 56 56 55 55 54 53 52 51 50 49 49 48 47 46 45 43 42 41 40 39 38 37 36 36 35 35 34 34 34 33 33 33 33 33 32 32 32 31 31 31 30 30 30 31 31 31 32 32 32 32 32 31 31 31 31 31 31 32 32 32 33 33 33 33 33 33 33 33
57 56 56 55 54 53 52 51 50 49 49 48 47 46 45 44 42 41 40 39 38 37 36 36 35 35 34 34 33 33 33 32 32 32 32 32 31 31 31 30 30 30 30 30 30 31 31 31 32 32 32 32 31 31 31 31 30 30 31 31 31 32 32 32 32 32 32 32 32
57 56 55 55 54 53 52 51 49 48 48 47 46 45 44 43 42 40 39 38 37 36 36 35 35 34 33 33 33 32 32 32 31 31 31 31 31 30 30 30 30 30 30 30 30 30 30 31 31 32 32 32 31 30 30 30 30 30 30 30 30 31 31 31 31 31 31 31 32
56 55 54 54 53 52 51 49 48 47 47 46 45 44 43 42 41 40 39 38 37 36 35 35 34 34 33 33 32 32 31 31 31 31 31 30 30 30 30 29 29 29 29 29 29 29 30 30 30 31 31 31 30 30 29 29 29 29 29 29 30 30 30 30 30 30 30 30 31
55 54 53 52 51 50 49 48 47 46 45 45 44 43 42 41 40 39 38 37 36 36 35 34 34 34 33 32 32 31 31 30 30 30 30 30 30 29 29 29 28 28 28 28 28 28 28 29 29 30 30 30 29 29 28 28 28 28 28 29 29 29 29 29 30 30 30 30 30
53 52 51 51 50 49 48 47 46 45 44 44 43 42 41 40 39 38 37 36 36 35 34 34 33 33 33 32 31 31 30 30 30 29 29 29 29 28 28 28 27 27 26 26 26 26 26 27 27 27 28 28 27 27 27 27 28 28 28 28 28 28 29 29 29 29 29 29 29
52 51 50 49 48 47 47 46 45 44 43 43 42 41 40 39 38 37 36 36 35 34 34 33 33 32 32 31 30 30 30 29 29 29 28 28 28 28 27 27 26 25 25 25 25 25 24 24 24 23 23 23 24 24 25 26 27 27 27 27 28 28 28 28 28 28 28 29 29
50 49 48 47 47 46 46 45 44 43 43 42 41 40 39 38 37 37 36 35 34 33 33 32 32 31 31 30 30 29 29 29 28 28 27 27 27 27 26 25 24 23 23 24 24 23 23 22 21 20 20 19 20 21 22 24 25 26 26 26 27 27 27 27 27 28 28 28 28
48 48 47 46 46 45 45 44 43 43 42 41 40 39 38 37 37 36 35 34 34 33 32 31 31 30 30 30 29 29 29 28 28 27 27 26 26 26 25 24 23 22 22 23 23 23 22 21 20 19 18 18 18 18 19 21 22 24 25 25 26 26 26 27 27 27 27 27 27
47 46 46 45 45 44 44 43 43 42 41 40 40 39 38 37 36 35 34 34 33 32 32 31 30 30 29 29 29 28 28 27 27 26 26 25 25 24 23 22 21 21 22 22 22 22 20 19 18 18 17 17 17 17 18 19 21 22 23 24 25 26 26 26 26 26 26 26 26
45 45 44 44 44 44 43 42 42 41 40 39 39 38 37 36 35 34 33 32 32 32 31 30 29 29 29 28 28 27 27 26 25 25 24 24 23 22 21 21 21 21 21 22 21 20 19 18 18 17 17 17 17 17 18 19 20 22 23 24 24 25 25 25 25 25 25 25 25
44 44 44 43 43 43 42 42 41 40 39 39 38 37 36 35 34 33 32 31 31 31 30 29 28 28 28 27 27 26 26 25 24 24 23 22 21 20 20 20 20 21 21 21 21 20 19 18 17 17 17 17 17 18 19 19 21 22 23 23 24 24 24 24 24 24 24 24 24
44 43 43 43 42 42 42 41 40 39 39 38 37 36 35 34 33 32 31 30 30 29 29 28 28 28 27 27 26 25 25 24 23 22 22 21 20 20 20 20 20 20 20 20 20 19 18 17 17 17 17 17 18 18 19 19 20 21 22 23 23 23 23 23 22 22 23 23 23
43 43 42 42 42 41 41 40 40 39 37 36 35 35 34 33 32 31 30 29 28 28 28 28 27 27 26 26 25 24 24 23 22 21 20 19 19 19 20 20 20 20 19 19 19 18 17 17 17 17 17 17 18 18 18 19 20 20 21 22 23 23 23 22 22 22 22 23 23
43 42 42 42 41 41 40 40 39 38 36 35 34 33 32 32 31 30 29 28 27 27 27 27 26 26 25 24 24 23 23 22 21 20 19 19 19 19 19 19 19 18 18 18 17 17 17 16 16 16 16 17 17 17 18 18 19 20 21 22 23 23 22 22 22 22 23 23 24
Wind_Direction
313 313 313 313 313 313 312 312 311 311 310 310 309 308 308 308 308 307 307 307 306 306 305 304 303 301 299 297 295 294 292 291 290 288 287 286 285 284 283 281 280 279 278 276 274 273 271 270 269 268 266 265 263 261 260 258 257 257 256 254 253 252 249 244 240 239 238 238 237
312 312 312 312 312 312 312 311 311 310 310 309 308 307 307 307 306 306 306 306 305 305 304 303 302 300 298 296 294 293 292 290 289 288 287 286 284 283 282 281 280 278 277 275 274 272 271 270 269 268 266 265 264 262 260 258 257 256 256 255 253 252 250 246 242 239 239 239 238
312 312 311 311 311 311 311 311 310 310 309 308 308 307 306 306 305 305 305 304 304 303 303 302 301 299 297 296 294 293 291 290 289 287 286 285 284 283 282 281 279 278 277 275 273 272 270 269 268 267 267 265 264 263 261 259 258 257 256 254 253 252 250 247 244 241 239 239 239
311 311 311 311 310 310 310 310 309 309 308 308 307 306 306 305 305 304 304 303 303 302 301 301 300 298 297 295 294 292 291 289 288 287 286 285 283 282 281 280 279 278 277 275 273 271 270 268 268 267 266 266 265 263 261 260 258 257 255 254 253 251 250 248 245 242 240 239 238
310 310 310 310 310 309 309 309 309 308 308 307 307 306 305 305 304 304 303 302 302 301 300 300 299 298 296 295 293 292 290 289 288 286 285 284 283 282 281 280 278 277 276 275 273 271 269 268 267 266 266 266 265 263 262 260 259 257 256 254 253 251 250 248 246 243 241 239 238
309 309 309 309 309 309 309 308 308 308 307 307 306 306 305 305 304 303 302 301 301 300 299 299 298 297 296 294 293 292 290 289 287 286 284 283 282 281 280 279 278 277 276 274 273 271 269 267 266 265 265 265 265 264 262 261 259 257 256 254 253 251 250 248 247 244 242 240 238
309 309 309 309 309 308 308 308 308 307 307 306 306 305 305 304 303 303 302 301 300 300 299 298 297 296 295 294 293 292 290 289 287 286 284 283 281 280 279 278 277 276 275 274 273 271 269 267 266 265 265 265 264 264 263 261 259 257 256 254 253 251 250 249 247 245 243 241 240
308 308 308 308 308 308 308 307 307 307 307 306 306 305 304 304 303 302 302 301 300 299 299 298 297 296 295 294 293 292 290 289 287 286 284 282 281 279 278 278 277 276 275 274 272 271 269 267 265 264 264 264 264 263 263 261 260 258 256 255 253 251 250 249 247 245 244 242 241
308 308 308 308 307 307 307 307 307 307 307 306 305 305 304 304 303 302 302 301 300 299 298 298 297 296 295 294 293 292 291 289 287 286 284 282 280 279 278 277 276 275 274 273 272 271 269 267 265 264 264 263 263 263 262 261 260 258 257 255 253 252 250 249 248 246 244 243 242
307 307 307 307 307 307 307 307 307 307 307 306 306 305 304 304 303 302 302 301 300 299 298 297 297 296 295 294 293 292 291 289 288 286 284 282 280 279 277 276 275 275 274 273 272 270 269 267 266 265 264 263 263 263 262 261 260 259 257 255 254 253 251 250 248 246 245 243 242
307 307 307 307 307 307 307 307 307 307 307 306 306 305 305 304 303 302 302 301 300 299 298 297 296 295 295 294 293 292 291 289 288 286 284 282 280 278 277 276 275 274 273 272 271 270 268 267 266 265 264 264 263 263 262 261 260 259 257 256 254 253 252 250 248 246 244 243 242
307 307 307 307 308 308 308 307 307 307 306 306 306 305 305 304 303 302 301 300 299 298 297 296 295 295 294 293 292 291 290 289 288 286 284 282 280 278 276 275 274 274 273 272 270 269 268 267 266 265 265 264 264 263 262 261 259 258 257 256 255 253 252 250 248 246 244 243 242
307 308 308 308 308 308 307 307 307 307 306 306 306 305 305 304 303 302 301 300 298 297 296 296 295 294 293 293 292 291 290 289 287 285 283 282 280 278 276 275 274 273 272 271 270 268 267 266 265 265 265 264 264 263 262 261 259 258 257 256 255 253 252 250 248 246 245 243 242
308 308 308 308 308 307 307 307 306 306 306 306 305 305 304 304 303 302 300 299 298 297 296 295 294 293 293 292 291 290 289 288 286 285 283 281 279 278 276 275 274 273 272 271 269 268 267 266 265 264 264 264 264 264 263 261 259 257 256 256 255 254 252 250 249 247 245 243 242
309 309 308 308 307 307 306 306 306 306 305 305 305 305 304 303 302 301 300 299 298 297 296 295 294 293 292 291 290 289 288 287 286 284 282 281 279 277 276 274 274 273 272 271 269 268 267 266 265 264 264 264 264 264 263 261 259 257 256 255 254 253 252 250 249 247 245 243 242
309 308 308 307 307 306 306 306 305 305 305 305 305 304 304 303 302 301 300 299 298 297 295 294 293 292 291 290 289 288 287 286 285 283 282 280 278 277 275 274 273 273 272 271 269 268 266 265 264 264 263 264 264 264 263 262 260 257 255 254 253 252 252 250 248 246 244 243 242
308 308 307 307 306 306 305 305 305 305 305 305 305 304 303 303 302 301 300 299 298 296 295 294 293 292 291 289 288 287 286 285 284 282 281 279 278 276 275 274 273 272 272 271 269 268 267 265 264 263 263 263 263 263 263 262 260 257 255 253 252 252 251 250 248 246 244 243 242
308 307 307 306 306 305 305 305 305 305 304 304 304 304 303 303 302 301 300 298 297 296 295 294 293 291 290 288 287 286 284 283 282 281 280 279 277 276 275 274 273 272 272 271 270 268 267 265 264 263 263 262 263 263 262 262 260 257 255 253 252 251 250 249 248 245 243 242 241
307 307 306 306 305 305 305 304 304 304 304 304 304 304 303 302 302 301 300 298 297 296 295 294 292 291 289 287 286 284 283 282 281 280 279 278 277 276 274 273 273 272 271 271 269 268 267 265 264 263 262 262 262 262 262 261 260 257 255 252 251 250 250 249 247 245 243 241 241
307 306 306 305 305 305 304 304 304 304 304 304 304 303 303 302 301 300 299 298 297 296 295 293 292 290 288 287 285 283 282 281 280 279 278 277 276 275 274 273 272 272 271 270 269 268 267 265 264 263 262 262 262 262 261 261 259 257 254 252 250 250 249 249 247 245 242 241 240
306 306 305 305 305 304 304 304 304 304 304 304 303 303 303 302 301 300 299 298 297 296 295 293 291 290 288 286 284 282 281 280 279 278 277 276 275 275 274 273 272 272 271 270 269 268 267 265 264 263 262 262 261 261 261 260 259 257 254 251 250 249 249 248 246 244 242 240 239
306 305 305 305 305 304 304 304 304 304 303 303 303 303 302 302 301 300 299 298 297 296 294 293 291 289 287 285 283 281 280 279 278 277 276 276 275 274 274 273 272 272 271 270 269 268 266 265 264 263 262 262 261 261 260 260 258 256 253 251 249 248 248 248 246 244 241 240 239
305 305 305 305 304 304 304 304 304 303 303 303 303 302 302 301 301 300 299 298 297 295 294 292 291 289 287 284 283 281 279 278 277 277 276 276 275 274 274 273 273 272 271 271 269 268 266 265 264 263 262 261 261 261 260 259 257 255 252 250 249 248 247 247 245 243 241 239 238
305 305 305 305 304 304 304 304 303 303 303 302 302 302 301 301 300 299 298 297 296 295 293 292 290 288 286 284 282 280 279 278 277 277 276 276 275 274 274 273 273 272 271 271 269 267 266 264 263 262 262 261 261 261 260 258 256 254 251 249 248 247 246 245 244 242 240 239 238
305 305 305 304 304 304 304 303 303 302 302 302 301 301 301 300 299 299 298 296 295 294 293 291 290 288 286 284 282 281 279 278 277 277 276 276 275 275 274 273 273 272 272 270 269 267 265 264 263 263 262 262 261 261 259 257 255 252 250 247 246 246 245 245 244 242 240 238 237
305 305 305 304 304 304 303 303 302 302 301 301 301 300 300 299 298 297 296 295 294 293 292 291 289 288 286 284 283 281 280 278 278 277 276 276 275 275 274 273 273 272 272 270 268 267 265 264 264 264 263 263 262 261 259 257 254 251 248 246 245 244 244 244 243 241 239 237 236
305 305 305 304 304 303 303 302 302 301 301 300 300 299 299 298 297 296 295 294 293 292 291 290 289 287 286 284 283 281 280 279 278 277 276 276 275 275 274 274 273 273 272 270 269 267 266 265 265 265 264 263 262 260 258 256 253 250 247 245 243 243 243 243 242 241 238 236 235
305 305 305 304 304 303 302 302 301 300 300 299 299 298 298 297 296 295 294 293 292 291 290 289 288 287 286 285 283 282 280 279 278 277 276 276 275 275 274 274 273 273 272 270 269 268 267 266 266 265 265 263 262 259 257 255 252 249 246 243 241 241 241 242 241 239 237 235 234
305 305 305 304 304 303 302 301 301 300 299 299 298 297 297 296 294 293 292 291 290 290 289 288 288 287 286 285 284 282 281 279 278 277 276 276 275 274 274 274 274 273 272 270 269 268 267 267 267 266 265 263 261 258 255 253 250 246 243 241 240 240 241 240 239 237 235 234 233
306 305 305 304 304 303 302 301 300 299 299 298 297 296 295 294 293 292 291 290 289 289 288 287 287 287 286 285 284 282 281 279 278 277 276 275 274 274 274 274 273 272 271 270 269 269 268 268 268 267 265 263 259 256 253 250 247 243 241 239 239 240 240 239 237 235 233 232 231
306 306 305 304 304 303 302 301 300 299 298 297 296 295 295 293 292 291 290 289 288 288 287 287 286 286 285 285 284 282 281 279 278 277 275 274 274 274 274 274 273 272 270 270 269 269 269 269 269 267 265 262 258 253 250 246 243 240 238 238 239 239 239 237 235 233 231 230 229
306 306 305 304 304 303 302 301 300 299 298 297 296 295 294 293 291 290 289 288 287 287 286 286 286 285 285 284 283 282 281 279 278 276 275 274 273 273 273 273 272 271 270 269 269 269 270 270 270 268 264 260 255 250 246 243 239 237 237 237 238 238 237 234 232 231 229 228 227
306 306 305 305 304 303 303 302 301 300 298 297 296 294 293 292 291 290 288 287 287 286 286 285 285 285 284 284 283 282 280 279 277 276 274 273 273 273 273 272 271 270 269 268 268 269 270 270 270 267 264 259 254 249 244 240 237 236 236 237 237 236 234 231 230 228 227 226 224
307 306 306 305 304 304 303 302 301 300 299 297 296 294 293 292 290 289 288 286 286 285 284 284 284 284 283 283 282 281 280 279 277 275 274 273 272 272 272 271 270 269 268 268 267 267 268 267 266 264 262 259 254 249 244 239 236 234 235 235 235 233 231 229 227 226 224 223 222
307 306 306 305 305 304 304 303 302 301 299 298 296 294 293 291 290 288 287 286 285 284 284 283 283 283 283 282 281 280 279 278 276 274 273 272 272 272 271 270 268 268 268 268 267 266 265 263 262 261 260 257 253 248 243 239 236 235 234 233 232 230 228 226 224 223 221 220 219
307 307 306 306 305 305 304 303 302 301 300 298 296 295 293 291 290 288 286 285 284 283 283 282 282 282 282 281 281 280 278 277 275 273 272 271 271 270 269 268 267 267 267 267 266 264 262 260 260 259 258 254 250 245 242 239 238 236 234 232 229 227 225 223 221 219 218 217 216
308 307 307 306 306 305 305 304 303 301 300 298 297 295 293 291 290 288 286 285 284 283 282 281 281 281 281 281 280 279 278 276 274 272 271 270 269 268 268 267 268 268 267 266 264 262 260 259 259 259 256 252 248 245 242 241 239 237 234 230 226 223 220 218 216 215 214 213 213
308 308 307 306 306 305 305 304 303 302 300 299 297 295 293 291 290 288 286 284 283 282 281 280 280 280 280 281 280 278 276 274 272 270 269 268 267 267 267 268 269 269 267 265 262 259 258 258 258 257 254 251 248 245 243 241 239 236 232 227 222 217 214 212 211 211 210 209 209
308 308 307 307 306 306 305 304 303 302 301 299 297 295 294 292 290 288 286 283 282 280 279 279 279 279 280 280 279 277 275 272 269 267 266 265 265 266 267 269 270 269 266 263 259 257 256 257 257 256 253 250 248 246 244 240 237 232 227 221 215 210 207 206 206 207 207 206 205
308 308 307 307 306 306 305 304 303 302 301 299 297 296 294 292 290 288 285 283 280 279 278 277 278 278 279 279 278 276 273 270 267 264 263 262 263 265 267 269 269 267 264 261 257 255 255 256 256 254 252 250 249 246 242 237 231 225 219 213 207 203 201 201 202 203 204 203 202
309 308 307 307 306 306 305 304 303 302 301 299 297 296 294 292 290 287 285 282 279 278 277 277 277 278 278 278 276 274 271 267 264 261 260 261 263 265 267 268 267 265 261 258 256 255 255 255 255 253 252 251 249 244 237 230 223 217 211 206 201 198 197 198 199 200 201 201 201